STARLINK-35589, 66426

Orbit data source: Space-Track

STARLINK-35589, 66426 is a payload satellite owned by SpaceX/Seattle (US) in LEO that was launched on Tue, 11 Nov 2025 UTC via an FALCON 9 launch vehicle from the Air Force Eastern Test Range (AFETR). Payload-class satellites include a variety of spacecraft equipped with specific instruments for various scientific and technological missions. These include communications satellites like Starlink; space stations such as the ISS; scientific satellites like the Hubble; Earth observation satellites from companies like Planet Labs, Umbra, and HawkEye 360; GPS; miniature CubeSats for education and research; and military/defense satellites.

Loading next visibility...
Identifier
66426, 2025-259E
Orbit
LEO
Country
Flag of USUS
Related business
Manufacturer
SpaceX/Seattle
Mission
Operational Commercial Communications
Bus & Motor
STARLINK V2MO, Unknown motor
Mass
575 kg wet, ~530 kg dry
Launch date (UTC)
2025-11-11 (7 months ago)
Launch vehicle
FALCON 9
Launch site
Air Force Eastern Test Range (AFETR)
Object type
Payload
Rocket body
Debris
Shape & HBR
Box + 2 Pan, 17.7 m
Radar Cross Section
36.964 m², Large (>1 m²)

Expand to show TLE details & history
Last TLE update: 13 hours ago

TLE from 13 hours ago
0 STARLINK-35589
1 66426U 25259E   26150.11228413  .00029394  00000-0  10726-2 0  9998
2 66426  42.9968 174.5346 0000462 318.9810  41.1007 15.27605013 31946
Epoch: 2026-05-30T02:41Z
TLE epoch observation values (Epoch: 2026-05-30T02:41:41.348Z)
Latitude
-0.00002°
Longitude
-113.52069°
Altitude
482.51 km
Speed
7.626 km/s
True Right ascension
11h 38m 08s
True Declination
0° 00' 00"
Sunlit
Object was in daylight at epoch
Visualization orbit readout
Latitude
Unknown
Longitude
Unknown
Altitude
Unknown
Speed
Unknown
Apparent Right ascension
Unknown
Apparent Declination
Unknown
Sunlit
N/A
Visualization observer readout
Local Sidereal Time
01:33:23
Azimuth
Unknown
Elevation
Unknown
Doppler factor
Unknown
Orbital elements
Apogee altitude
485.237 km
Perigee altitude
484.603 km
Semi-major axis
6,863.057 km
Eccentricity
0.00005
Inclination
42.9968°
RAAN
174.5346°
Arg. of periapsis
318.981°
True anomaly
41.10418°
Mean anomaly
41.1007°
Eccentric anomaly
41.10244°
Mean motion
3.81739 °/min
Orbital period
94.31 mins
BSTAR
0.0010726
Loading maneuver chart data...
Computing Atmospheric mass density...
Loading historical data...
Loading historical data...
Loading historical data...
Loading historical data...
Loading historical data...
Loading historical data...
Loading historical data...

Documentation

Showing up to 5 results
|